Wind_Speed
8 7 7 6 6 6 5 5 4 4 4 4 4 4 5 5 5 4 4 4 4 4 4 5 6 6 7 8 9 11 13 15 17 18 20 22 24 26 28 30 32 34 36 37
7 7 6 5 4 4 4 3 3 3 3 3 3 3 4 4 4 4 5 6 6 7 8 9 10 11 11 13 14 16 18 19 21 22 24 26 28 30 32 34 36 37 39 40
5 5 4 4 3 3 3 2 2 2 2 2 3 4 5 6 7 7 8 8 9 11 11 12 13 14 16 18 20 21 23 24 26 28 29 31 32 34 36 39 40 42 44 45
3 3 3 3 3 2 2 2 2 3 4 4 6 7 8 8 9 9 10 11 12 13 14 15 16 18 19 21 23 25 27 29 30 32 34 36 38 40 43 45 47 49 51 52
2 2 2 3 3 3 3 4 4 5 7 8 9 9 10 10 11 12 13 14 15 16 17 18 19 21 23 25 27 29 30 32 34 36 38 41 44 46 49 51 54 55 57 59
5 5 4 5 5 5 5 5 7 8 9 10 10 11 12 13 14 15 15 17 18 19 20 22 23 26 28 30 32 33 35 36 39 41 43 46 48 51 54 56 59 61 63 64
7 7 7 7 7 8 8 9 10 11 11 12 12 13 14 15 15 16 17 19 21 22 24 26 28 31 33 34 36 37 39 41 43 46 48 51 54 57 59 61 63 65 66 67
9 9 9 9 10 10 11 11 12 13 13 13 14 15 15 16 17 19 21 22 24 26 28 30 32 34 36 38 39 41 43 46 49 51 54 56 58 60 63 65 66 66 66 66
11 11 11 11 12 12 13 14 15 15 15 16 16 17 19 20 21 23 24 26 28 30 32 34 36 38 40 42 43 45 48 50 53 56 58 60 62 63 64 65 65 65 65 66
14 13 14 14 14 15 16 16 17 18 18 19 20 21 22 23 24 26 28 30 31 33 35 37 39 42 43 45 46 49 51 54 57 59 61 62 64 65 65 64 65 65 65 65
16 17 16 17 18 18 18 19 20 21 22 22 23 24 25 27 28 30 31 33 35 37 39 41 43 45 46 48 50 52 54 57 60 62 63 64 65 65 65 65 66 65 64 64
18 19 19 19 20 21 22 23 23 24 24 25 26 27 29 30 32 33 35 36 38 40 42 44 46 48 49 51 53 55 57 60 62 64 65 66 65 64 65 65 64 64 63 62
21 21 21 22 23 24 24 25 25 26 27 28 29 30 31 33 34 36 37 39 41 43 45 47 49 50 51 53 55 58 60 62 64 65 66 66 65 63 62 62 62 62 61 60
23 24 24 25 25 26 27 27 28 28 29 30 31 32 34 35 37 39 40 42 44 46 48 49 51 52 53 55 57 60 62 63 64 65 65 64 63 62 61 59 58 57 58 57
26 27 27 27 28 28 29 30 30 31 32 32 33 34 36 38 39 41 42 44 46 48 49 51 52 53 55 57 59 61 62 63 63 63 63 62 61 60 58 57 56 54 53 52
28 29 30 30 30 30 31 32 32 33 34 34 35 36 37 39 41 42 43 45 47 48 50 52 53 55 56 58 60 61 62 62 62 61 61 60 59 57 55 54 53 52 50 48
29 30 30 31 31 32 33 33 33 34 35 36 37 38 39 41 43 44 45 47 48 49 51 52 54 56 57 58 60 61 61 61 60 59 59 58 56 54 53 52 51 49 47 45
31 31 31 31 31 31 33 34 34 35 37 38 39 40 42 43 44 45 46 47 49 51 52 54 55 56 58 58 59 60 60 59 58 57 56 55 53 52 51 50 48 46 44 42
31 31 31 31 32 33 33 34 35 37 38 39 41 42 43 44 45 46 47 48 50 52 53 55 56 57 58 58 58 58 58 57 56 55 54 53 52 51 49 48 46 44 42 39
31 31 31 32 33 33 34 35 36 38 39 40 41 43 44 45 46 47 47 48 50 52 54 55 56 57 57 57 57 56 56 55 54 53 52 51 50 48 46 45 43 41 39 36
31 32 32 32 33 34 35 36 37 38 40 41 42 43 44 45 46 47 48 49 51 52 54 55 55 56 56 55 54 54 54 54 52 51 50 48 47 45 43 42 40 38 36 33
32 32 33 33 33 34 35 37 38 39 40 41 43 44 45 46 47 47 48 49 51 52 53 54 54 54 53 53 52 52 52 52 50 49 47 45 44 42 40 38 36 35 33 30
34 34 34 35 35 36 37 38 39 40 41 42 43 44 45 46 46 47 48 49 50 51 52 52 53 52 51 51 50 50 50 49 47 46 44 43 42 39 37 35 33 32 29 27
36 36 37 37 38 38 39 39 40 41 42 43 44 44 45 46 46 47 48 48 49 50 50 51 51 50 49 48 48 48 47 46 44 43 43 41 39 36 34 32 30 28 26 23
37 38 38 39 39 39 40 40 41 42 43 43 44 45 45 45 46 46 47 47 48 49 49 49 49 48 47 46 46 45 44 42 42 41 40 38 36 33 31 29 27 25 23 21
39 39 39 40 40 40 41 41 42 42 43 43 44 45 45 44 45 45 46 46 47 48 48 48 47 46 45 44 44 43 41 40 40 39 37 35 33 30 27 25 24 23 21 19
39 39 40 40 41 41 42 42 43 43 43 43 43 44 44 43 44 44 45 46 47 47 47 47 45 44 43 42 41 40 39 38 37 36 34 32 30 27 24 23 22 21 19 17
Wind_Direction
85 86 83 80 79 80 84 83 79 78 76 69 56 54 54 47 41 37 33 26 12 5 358 345 334 324 317 309 299 291 288 285 284 283 282 280 277 275 274 272 272 272 272 271
74 78 77 76 73 69 67 65 62 59 59 48 34 29 16 9 3 353 343 337 332 326 321 318 316 314 309 305 301 297 295 294 292 291 290 288 286 284 282 280 278 276 276 275
60 60 63 60 63 60 53 48 37 12 356 344 338 337 334 331 330 324 320 317 316 316 314 311 308 306 304 303 302 299 298 296 294 293 292 290 289 287 286 285 283 281 278 276
40 42 35 47 38 29 6 345 336 330 324 319 318 317 317 317 316 317 318 317 315 314 312 309 308 307 305 303 301 300 299 297 295 293 292 291 289 288 287 286 285 283 281 279
340 347 352 341 335 325 326 327 318 316 314 313 310 310 310 309 311 313 314 312 311 310 308 307 306 305 304 304 303 302 301 300 298 296 294 293 292 290 289 288 287 285 284 283
305 309 310 308 307 306 309 315 312 313 312 310 310 308 306 306 308 309 309 308 307 308 307 306 306 306 305 305 304 304 303 302 300 299 298 297 296 294 292 291 290 288 287 285
296 299 302 299 301 304 304 306 307 310 310 309 309 307 306 306 305 306 306 306 307 307 307 306 307 307 307 306 306 305 305 304 303 302 301 300 299 297 296 294 292 290 289 287
287 293 294 294 297 299 300 303 305 306 306 306 305 305 304 305 305 305 306 306 307 307 307 307 307 308 308 307 307 306 305 305 304 304 303 302 301 299 298 296 294 292 290 288
283 286 287 289 291 293 296 299 300 301 301 301 302 302 302 302 303 304 305 306 306 306 306 307 308 308 308 308 307 307 306 306 306 305 305 304 303 301 300 298 296 294 292 290
279 282 284 286 288 291 293 296 297 297 297 298 299 300 300 301 303 304 305 306 306 307 307 308 308 308 308 308 307 307 307 307 308 307 307 307 305 304 302 300 298 297 294 292
278 279 282 286 287 288 290 292 294 293 294 295 296 297 298 299 301 303 304 305 306 307 308 308 308 308 308 308 308 309 309 309 309 309 309 308 307 306 304 302 300 299 297 296
279 279 281 284 285 288 290 292 292 293 294 295 296 296 298 299 301 303 304 305 306 306 307 308 308 308 308 309 309 310 310 311 311 311 311 310 308 307 305 304 303 301 300 298
281 281 282 284 286 288 291 293 294 294 295 295 296 297 298 299 301 302 304 305 306 307 308 308 309 309 309 310 310 311 312 312 312 313 312 312 310 308 307 306 305 304 302 300
281 281 283 284 286 288 290 292 293 294 294 295 296 297 298 300 301 303 304 305 306 307 308 309 309 310 310 310 311 312 313 314 314 314 314 314 312 311 311 310 308 306 304 302
279 281 283 284 286 288 290 291 293 294 295 295 296 298 299 301 302 304 305 306 307 308 310 310 311 311 311 312 312 313 314 315 316 316 316 316 316 315 315 314 313 310 308 306
280 281 283 285 286 288 290 291 293 294 296 296 297 299 300 302 304 305 306 308 308 310 311 312 312 312 312 313 314 315 317 317 318 318 318 318 318 317 317 317 317 315 313 311
282 283 285 286 287 288 289 291 292 293 295 296 298 299 301 303 304 306 307 308 309 310 312 312 313 314 314 315 316 317 319 319 319 320 320 320 320 320 320 320 319 318 316 315
282 283 285 287 288 289 290 291 292 293 295 296 298 300 301 303 304 306 307 308 309 311 312 313 314 315 316 317 318 319 320 321 322 322 322 322 322 322 322 322 321 320 319 318
282 283 286 288 289 290 291 291 293 294 295 297 299 301 302 303 305 306 307 309 310 312 314 315 316 317 318 319 320 321 322 323 323 324 324 324 324 324 324 324 323 322 322 321
283 284 286 288 290 291 292 293 294 295 296 298 299 301 303 304 305 307 308 309 312 313 315 316 317 318 319 320 321 322 323 324 325 325 325 326 326 326 326 327 327 326 324 323
283 285 286 288 289 291 292 294 296 297 298 299 300 302 303 304 306 307 309 310 312 314 315 317 318 319 320 321 321 323 324 326 326 327 327 328 328 328 328 329 329 329 328 327
283 284 286 287 288 290 292 294 296 298 299 300 302 303 304 305 307 308 309 311 313 315 316 318 319 320 321 321 322 324 325 326 327 328 330 330 330 331 331 332 332 333 332 333
283 284 285 287 288 289 292 294 296 298 300 301 303 304 305 306 307 309 311 313 315 316 318 319 320 321 322 322 323 324 326 327 329 330 331 332 333 334 334 334 335 337 337 336
282 283 285 286 288 289 291 294 296 298 300 302 304 305 306 307 308 310 312 314 316 318 319 320 321 322 323 323 325 326 327 329 330 332 333 334 335 335 336 337 338 340 342 343
283 285 285 286 287 289 291 294 296 298 300 302 303 305 306 307 309 310 313 315 317 318 320 321 322 323 324 325 326 327 329 330 331 333 334 335 336 337 338 339 341 343 345 347
284 284 285 286 287 289 291 294 296 298 300 301 303 304 305 307 309 311 313 315 317 319 320 321 322 324 325 326 327 328 329 330 332 334 336 337 337 338 340 342 344 346 348 350
284 284 285 286 288 290 292 294 296 298 299 301 302 304 306 307 309 311 313 316 318 319 320 321 322 324 325 326 328 329 330 331 333 335 337 338 339 340 341 342 344 347 349 351
Height
5650 5650 5649 5649 5649 5649 5648 5648 5648 5648 5647 5647 5646 5645 5644 5643 5642 5642 5641 5640 5640 5639 5638 5637 5637 5636 5635 5634 5634 5633 5633 5632 5631 5630 5629 5628 5627 5626 5625 5625 5624 5623 5621 5620
5653 5653 5652 5652 5651 5651 5651 5650 5650 5649 5649 5648 5647 5647 5646 5645 5644 5643 5642 5641 5640 5639 5638 5637 5636 5635 5633 5632 5631 5630 5628 5627 5626 5624 5622 5621 5619 5617 5616 5614 5613 5611 5609 5608
5656 5655 5655 5655 5654 5653 5652 5652 5651 5651 5651 5649 5649 5648 5647 5645 5644 5643 5642 5641 5639 5638 5637 5635 5634 5632 5631 5629 5627 5625 5623 5621 5619 5617 5615 5612 5610 5608 5605 5603 5600 5598 5595 5593
5658 5658 5657 5658 5655 5654 5654 5653 5652 5651 5651 5650 5649 5648 5646 5645 5644 5642 5641 5639 5638 5636 5634 5633 5631 5629 5626 5624 5621 5619 5616 5613 5610 5607 5605 5602 5599 5596 5593 5590 5586 5583 5579 5576
5659 5659 5658 5658 5656 5655 5654 5654 5652 5651 5650 5649 5648 5647 5646 5644 5642 5641 5639 5637 5635 5633 5631 5629 5626 5624 5621 5618 5614 5611 5607 5604 5600 5597 5593 5589 5586 5582 5578 5573 5569 5565 5561 5557
5659 5658 5658 5659 5657 5655 5655 5654 5652 5651 5649 5648 5647 5646 5645 5642 5641 5638 5636 5634 5632 5630 5627 5624 5621 5618 5614 5610 5606 5602 5598 5594 5589 5585 5580 5575 5570 5565 5560 5555 5549 5544 5540 5534
5659 5658 5658 5657 5656 5655 5655 5654 5651 5649 5648 5646 5645 5644 5642 5639 5637 5635 5633 5630 5628 5625 5622 5618 5615 5611 5606 5602 5597 5593 5588 5583 5577 5572 5566 5560 5554 5547 5540 5535 5528 5522 5517 5511
5658 5657 5658 5655 5654 5653 5653 5650 5649 5647 5646 5644 5642 5640 5638 5636 5633 5631 5629 5626 5623 5619 5615 5611 5607 5603 5598 5593 5588 5582 5577 5571 5565 5558 5551 5544 5536 5529 5521 5513 5506 5499 5493 5488
5656 5657 5654 5653 5652 5651 5649 5648 5646 5644 5643 5641 5639 5637 5634 5632 5629 5627 5624 5620 5616 5613 5608 5604 5599 5594 5589 5583 5578 5572 5565 5558 5551 5543 5535 5526 5518 5509 5501 5492 5483 5476 5470 5464
5653 5653 5651 5650 5648 5647 5646 5645 5643 5641 5639 5637 5635 5633 5630 5627 5624 5621 5618 5614 5610 5605 5601 5596 5590 5584 5579 5573 5566 5560 5552 5545 5537 5528 5519 5509 5499 5489 5480 5471 5462 5454 5447 5441
5649 5649 5648 5647 5645 5644 5642 5640 5639 5637 5635 5632 5630 5627 5625 5621 5618 5615 5611 5606 5602 5597 5592 5586 5580 5574 5568 5561 5555 5547 5539 5531 5522 5512 5502 5491 5481 5469 5460 5450 5440 5433 5426 5419
5646 5645 5644 5643 5641 5639 5637 5636 5634 5631 5629 5626 5624 5621 5618 5615 5611 5607 5603 5598 5593 5588 5582 5576 5570 5563 5556 5549 5542 5534 5525 5516 5506 5495 5485 5474 5463 5453 5441 5430 5421 5412 5404 5398
5640 5639 5638 5637 5635 5633 5632 5630 5627 5625 5623 5620 5617 5614 5610 5607 5603 5599 5594 5589 5584 5578 5572 5566 5559 5552 5544 5537 5528 5520 5510 5500 5490 5479 5467 5456 5445 5435 5426 5416 5403 5393 5385 5378
5634 5633 5632 5630 5629 5627 5625 5623 5621 5618 5615 5612 5609 5606 5602 5599 5594 5590 5585 5580 5574 5568 5561 5554 5547 5539 5532 5523 5514 5505 5495 5484 5474 5462 5451 5439 5428 5417 5407 5399 5390 5380 5369 5360
5627 5626 5625 5623 5622 5620 5617 5615 5613 5610 5607 5604 5601 5597 5594 5590 5585 5580 5575 5569 5563 5557 5550 5543 5535 5527 5519 5510 5501 5491 5480 5470 5458 5447 5435 5424 5413 5402 5392 5382 5373 5364 5355 5346
5620 5618 5617 5616 5614 5612 5610 5607 5605 5602 5599 5596 5592 5588 5584 5580 5575 5570 5564 5559 5552 5546 5539 5531 5523 5514 5506 5497 5487 5477 5466 5454 5443 5432 5421 5410 5399 5388 5378 5369 5359 5350 5341 5333
5612 5610 5609 5607 5605 5603 5601 5599 5596 5593 5590 5586 5583 5579 5574 5570 5565 5560 5554 5548 5541 5534 5527 5519 5510 5502 5493 5483 5473 5463 5452 5441 5429 5418 5407 5397 5386 5376 5366 5357 5347 5338 5329 5320
5603 5602 5600 5598 5596 5594 5592 5589 5587 5584 5580 5577 5573 5569 5564 5559 5554 5549 5542 5536 5529 5522 5515 5506 5498 5489 5479 5470 5460 5449 5439 5428 5417 5406 5395 5385 5374 5365 5355 5346 5336 5328 5319 5310
5594 5593 5591 5589 5587 5585 5582 5580 5577 5574 5570 5567 5563 5558 5554 5549 5543 5537 5531 5525 5518 5511 5503 5494 5485 5476 5467 5457 5447 5437 5427 5416 5406 5395 5384 5374 5364 5354 5345 5336 5327 5318 5310 5302
5585 5584 5582 5580 5578 5575 5573 5570 5567 5564 5560 5556 5552 5548 5543 5538 5532 5526 5520 5513 5507 5499 5491 5482 5473 5464 5455 5445 5435 5426 5415 5405 5395 5385 5374 5365 5355 5345 5336 5327 5318 5310 5302 5295
5576 5574 5572 5570 5568 5565 5563 5560 5557 5553 5550 5546 5542 5537 5532 5526 5521 5515 5508 5502 5495 5487 5479 5471 5462 5453 5443 5434 5424 5415 5405 5395 5385 5375 5366 5356 5346 5337 5328 5320 5311 5303 5296 5289
5566 5564 5562 5560 5558 5555 5552 5549 5546 5543 5539 5535 5530 5525 5520 5515 5509 5503 5497 5491 5483 5476 5467 5459 5450 5441 5432 5423 5414 5405 5395 5386 5376 5367 5357 5348 5339 5331 5322 5314 5306 5298 5291 5284
5556 5554 5552 5550 5547 5545 5542 5539 5536 5532 5528 5524 5519 5514 5509 5504 5498 5492 5486 5479 5472 5464 5456 5448 5439 5430 5422 5413 5404 5395 5386 5377 5368 5359 5350 5342 5333 5324 5316 5309 5302 5294 5287 5281
5545 5543 5541 5539 5537 5534 5531 5528 5525 5521 5517 5513 5508 5503 5498 5492 5487 5481 5475 5468 5461 5453 5445 5437 5429 5420 5412 5403 5395 5386 5377 5369 5360 5352 5344 5335 5327 5319 5312 5305 5298 5292 5286 5280
5534 5532 5530 5528 5525 5523 5520 5517 5514 5510 5506 5501 5497 5492 5486 5481 5476 5470 5464 5457 5450 5442 5435 5427 5419 5411 5403 5394 5386 5378 5370 5361 5354 5346 5338 5330 5322 5315 5309 5302 5296 5290 5285 5280
5522 5520 5518 5516 5514 5511 5508 5505 5502 5498 5494 5490 5485 5480 5475 5470 5465 5459 5453 5446 5439 5432 5425 5417 5409 5401 5394 5386 5378 5370 5362 5355 5348 5340 5333 5325 5318 5312 5306 5300 5295 5289 5284 5280
5510 5508 5506 5504 5502 5499 5496 5493 5490 5486 5482 5478 5474 5469 5464 5459 5454 5448 5442 5436 5429 5422 5415 5407 5400 5393 5385 5378 5370 5363 5356 5349 5342 5335 5328 5321 5315 5309 5304 5299 5294 5289 5284 5280